Location: Appingedam
(53.3222°N, 6.8488°E)
Time: 11:22:55
(UTC+00:00)

Cosmos 540 Rocket - Pass Details

Date: 15 May 2026
Orbit: 735 x 747 km, 74.1° (Epoch: 8 June)

Event Time Altitude Azimuth Distance (km) Brightness Sun altitude
Exits shadow 22:07:42 12° 209° (SSW) 2,154 5.4 -15.5°
Maximum altitude 22:12:34 80° 296° (WNW) 765 3.5 -15.8°
Drops below altitude 10° 22:17:44 10° 25° (NNE) 2,275 6.6 -16.0°
Sets 22:20:06 0° 26° (NNE) 3,201 7.5 -16.1°
